Flag for U.S.A. Weather past 2 weeks in Gloucester, Massachusetts, U.S.A.

Now
48 °F

Partly sunny.


Feels Like: 44 °F
Forecast: 43 / 50 °F
Wind: 8 mph from Northeast

Location: Beverly Municipal Airport

Current Time: Apr 19, 2015 at 11:04:08 AM

Latest Report: Apr 19, 2015 at 9:53 AM


Visibility: 10 mi

Pressure: 30.25 "Hg

Humidity: 52%

Dew point: 31 °F

Location of GloucesterLocation

Historic Weather in Gloucester — Graph

°F

Gloucester temperature yesterday

Maximum temperature yesterday: 60 °F (at 9:53 AM)
Minimum temperature yesterday: 39 °F (at 11:53 PM)
Average temperature yesterday: 50 °F

Past Weeks' High & Low Weather Summary

 TemperatureHumidityPressure
High70 °F (Apr 13, 1:53 PM)100% (Apr 9, 11:53 PM)30.50 "Hg (Apr 9, 11:53 PM)
Low30 °F (Apr 4, 11:53 PM)15% (Apr 15, 2:04 PM)29.50 "Hg (Apr 4, 9:53 AM)
Average46 °F60%30.13 "Hg
* Reported Apr 4 9:53 AM — Apr 19 9:53 AM, Gloucester, Weather by CustomWeather, © 2015

Note: Actual official high and low records may vary slightly from our data, if they occured in-between our weather recording intervals... More about our weather records

Advertising

Gloucester weather history for previous 24 hours

 ConditionsComfort  
Time TempWeatherWind HumidityBarometerVisibility
9:53 AM
Sun, Apr 19
48 °FPartly sunny.8 mph52%30.25 "Hg10 mi
8:53 AM49 °FPassing clouds.6 mph57%30.24 "Hg10 mi
7:53 AM46 °FSunny.5 mph63%30.24 "Hg10 mi
6:53 AM41 °FClear.5 mph70%30.21 "Hg8 mi
5:53 AM41 °FClear.3 mph67%30.18 "Hg10 mi
4:53 AM43 °FClear.10 mph62%30.14 "Hg10 mi
3:53 AM44 °FClear.12 mph63%30.12 "Hg10 mi
2:53 AM43 °FClear.10 mph65%30.10 "Hg10 mi
1:53 AM43 °FClear.10 mph68%30.08 "Hg10 mi
12:53 AM40 °FClear.6 mph89%30.07 "Hg10 mi
11:53 PM
Sat, Apr 18
39 °FClear.7 mph89%30.05 "Hg10 mi
10:53 PM41 °FClear.5 mph86%30.04 "Hg10 mi
9:53 PM42 °FClear.5 mph82%30.02 "Hg10 mi
8:53 PM42 °FClear.6 mph85%29.98 "Hg10 mi
7:53 PM44 °FSunny.3 mph82%29.93 "Hg10 mi
6:53 PM45 °FMostly cloudy.8 mph82%29.90 "Hg10 mi
5:53 PM49 °FBroken clouds.9 mph69%29.87 "Hg10 mi
4:53 PM50 °FScattered clouds.9 mph66%29.82 "Hg10 mi
3:53 PM51 °FScattered clouds.9 mph61%29.82 "Hg10 mi
2:53 PM52 °FPartly sunny.12 mph57%29.84 "Hg10 mi
1:53 PM58 °FSunny.12 mph50%29.87 "Hg10 mi
12:53 PM58 °FSunny.9 mph47%29.89 "Hg10 mi
11:53 AM59 °FSunny.14 mph44%29.91 "Hg10 mi
Weather by CustomWeather, © 2015

See weather overviewHow to use our weather pages